Regional Weather Roundup
Issued by NWS

Home | Current Version | Previous Version | Text Only | Print | Product List | Glossary Off
Versions: 1 2 3 4 5 6 7 8 9 10 11 12 13 14 15 16 17 18 19 20 21 22 23 24 25 26 27 28 29 30 31 32 33 34 35 36 37 38 39 40 41 42 43 44 45 46 47 48 49 50

000
ASUS43 KMPX 291010
RWRMN
WEATHER ROUNDUP FOR MINNESOTA
NATIONAL WEATHER SERVICE TWIN CITIES/CHANHASSEN MN
500 AM CDT SAT APR 29 2017


NOTE: "FAIR" INDICATES FEW OR NO CLOUDS BELOW 12,000 FEET WITH NO
SIGNIFICANT WEATHER AND/OR OBSTRUCTIONS TO VISIBILITY. N/A MEANS
CURRENT SKY AND/OR WEATHER CONDITIONS ARE NOT AVAILABLE.

MNZ060>063-068>070-291100-
   Twin Cities Metro

CITY           SKY/WX    TMP DP  RH WIND       PRES   REMARKS
TWIN CITIES    CLOUDY    39  25  57 NE12      30.18F
ST PAUL        CLOUDY    38  28  67 NE7       30.21S
CRYSTAL        CLOUDY    37  24  59 NE3       30.18F
LAKEVILLE      CLOUDY    37  28  70 NE15G22   30.16S
EDEN PRAIRIE   PTCLDY    41  26  55 NE13G18   30.16F
SOUTH ST PAUL  CLOUDY    39  28  64 NE7       30.19R
LAKE ELMO      FAIR      36  30  80 E6        30.21R
$$
MNZ001>005-007-008-013>017-022>024-027-028-291100-
   Northwest Minnesota

CITY           SKY/WX    TMP DP  RH WIND       PRES   REMARKS
BEMIDJI        CLEAR     21  18  88 CALM      30.23R
HALLOCK        PTCLDY    27  25  93 CALM      30.25R
ROSEAU         CLEAR     28  19  69 CALM      30.24S
WARROAD        CLEAR     28  19  69 CALM      30.24S
THIEF RVR FALL CLEAR     29  19  66 CALM      30.25R
CROOKSTON      CLEAR     30  27  86 SW3       30.26R
FOSSTON        CLEAR     19  16  86 CALM      30.24R
DETROIT LAKES  CLEAR     30  27  86 CALM      30.24S
MOORHEAD       CLEAR     28  25  86 CALM      30.25R
PARK RAPIDS    CLEAR     25  18  74 NW3       30.22R
MAHNOMEN       FAIR      27  25  89 S3        30.24S
$$
MNZ006-009>011-018-025>026-291100-
   North Central Minnesota

CITY           SKY/WX    TMP DP  RH WIND       PRES   REMARKS
BAUDETTE       CLEAR     26  20  77 CALM      30.22S
FLAG ISLAND    CLEAR     34  27  75 N5        30.24S WCI  30
INTL FALLS     CLEAR     21  17  84 CALM      30.24R
WASKISH        CLEAR     27  25  93 CALM      30.23R
BIG FORK       CLEAR     25  21  86 CALM      30.23R
LONGVILLE      CLEAR     27  27 100 CALM      30.23S
GRAND RAPIDS   CLEAR     23  21  92 CALM      30.24S
CRANE LAKE     CLEAR     18  18 100 CALM      30.27R
ORR            CLEAR     21  19  93 CALM      30.21S
COOK           CLEAR     21  19  93 CALM      30.23F
WALKER         FAIR      27  24  91 CALM      30.23S
$$
MNZ012-019>021-037-291100-
   Northeast Minnesota

CITY           SKY/WX    TMP DP  RH WIND       PRES   REMARKS
DULUTH         CLEAR     27  23  85 N6        30.20F WCI  20
ELY            CLEAR     21  21 100 CALM      30.24R
HIBBING        CLEAR     20  20 100 CALM      30.22R
EVELETH        CLEAR     23  21  91 N3        30.23F
DULUTH HARBOR  CLEAR     34  30  86 CALM      30.24F
TWO HARBORS    CLEAR     30  25  80 CALM      30.21F
SILVER BAY     CLEAR     25  25 100 N3        30.21F
GRAND MARAIS     N/A     33  24  69 N8        30.25R WCI  26
G MARAIS ARPRT CLEAR     23  18  80 CALM      30.21R
$$
MNZ029>031-032-039>041-046>048-054>057-064-291100-
   West Central Minnesota

CITY           SKY/WX    TMP DP  RH WIND       PRES   REMARKS
FERGUS FALLS   CLEAR     34  21  60 E5        30.24R WCI  30
WHEATON        CLOUDY    30  27  86 NW3       30.24F
MORRIS         CLOUDY    28  23  80 NE6       30.20F WCI  22
ALEXANDRIA     CLOUDY    34  20  56 NE5       30.22S WCI  30
ELBOW LAKE     FAIR      32  27  80 CALM      30.23S
WADENA         CLEAR     25  21  86 N3        30.22F
GLENWOOD       PTCLDY    32  23  69 NE6       30.22S WCI  26
APPLETON       CLOUDY    28  21  74 NE7       30.20S WCI  21
BENSON         CLOUDY    28  21  74 CALM      30.22S
ORTONVILLE     CLOUDY    30  21  69 N6        30.20F WCI  24
MADISON        CLOUDY    34  27  75 N5        30.19F WCI  30
WILLMAR        FAIR      36  27  69 NE6       30.20F
$$
MNZ033>034-036-042>043-049>051-058-059-291100-
   Central Minnesota

CITY           SKY/WX    TMP DP  RH WIND       PRES   REMARKS
ST CLOUD       CLOUDY    33  25  72 CALM      30.21R
SAUK CENTRE    FAIR      32  23  69 NE3       30.22F
PAYNESVILLE    CLOUDY    29  29 100 N3        30.20F
AITKIN         CLEAR     27  21  80 CALM      30.20F
PINE RIVER     CLEAR     25  21  86 CALM      30.25F
BRAINERD       CLEAR     26  25  96 CALM      30.22S
STAPLES        CLEAR     27  23  86 N3        30.22F
LONG PRAIRIE   FAIR      30  21  69 NW3       30.22F
LITTLE FALLS   CLOUDY    27  23  86 CALM      30.22S
LITCHFIELD     CLOUDY    37  28  70 NE3       30.19F
BUFFALO        CLOUDY    36  27  69 NE6       30.20S
MAPLE LAKE     PTCLDY    36  28  75 NE5       30.20S
HUTCHINSON     PTCLDY    38  29  69 NE10      30.18F
$$
MNZ037-044-045-052-053-291100-
   East Central Minnesota

CITY           SKY/WX    TMP DP  RH WIND       PRES   REMARKS
PRINCETON      CLOUDY    32  27  80 CALM      30.21R
MORA           CLOUDY    32  27  80 CALM      30.22F
CAMBRIDGE      CLOUDY    36  25  64 CALM      30.19S
RUSH CITY      CLOUDY    29  26  88 CALM      30.21S
MOOSE LAKE     CLEAR     28  27  93 CALM      30.20F
HINCKLEY       FAIR      28  27  93 N3        30.21F
CLOQUET        CLEAR     25  21  86 N7        30.20F WCI  17
MCGREGOR       CLEAR     28  27  93 CALM      30.22F
$$
MNZ071>073-080-081-089-090-097-098-291100-
   Southwest Minnesota

CITY           SKY/WX    TMP DP  RH WIND       PRES   REMARKS
MONTEVIDEO     PTCLDY    30  23  74 NE7       30.19F WCI  23
GRANITE FALLS  CLOUDY    34  27  73 N8        30.20F WCI  28
CANBY          CLOUDY    31  26  81 CALM      30.20F
MARSHALL       MOCLDY    31  25  78 VRB3      30.19F
REDWOOD FALLS  MOCLDY    36  25  64 N5        30.17F
OLIVIA         CLOUDY    34  28  80 NE8       30.17F WCI  27
PIPESTONE      CLOUDY    36  19  51 NE9       30.14R
WINDOM         CLOUDY    37  27  65 NE9       30.15R
WORTHINGTON    CLOUDY    35  26  69 NE10      30.16R WCI  27
JACKSON        CLOUDY    32  28  86 NE7       30.15R WCI  26
TRACY          CLOUDY    34  27  75 N7        30.16R WCI  28
SLAYTON        MOCLDY    34  25  69 N8        30.15R WCI  28
$$
MNZ065>067-074>077-082>085-091>093-291100-
   South Central Minnesota

CITY           SKY/WX    TMP DP  RH WIND       PRES   REMARKS
MANKATO        CLOUDY    39  29  67 NE15      30.16R
NEW ULM        MOCLDY    37  27  65 NE12G17   30.15R
ST JAMES       PTCLDY    37  28  70 NE7       30.18R
FAIRMONT       CLOUDY    38  29  70 NE9       30.16R
GLENCOE        CLOUDY    38  30  72 NE6       30.16F
FARIBAULT      CLOUDY    37  30  75 N12G22    30.16S
OWATONNA       CLOUDY    36  28  75 NE12G17   30.15R
WASECA         PTCLDY    36  30  80 NE12G22   30.16R
ALBERT LEA     MOCLDY    36  28  75 N9        30.13R
$$
MNZ078>079-086>088-094>096-291100-
   Southeast Minnesota

CITY           SKY/WX    TMP DP  RH WIND       PRES   REMARKS
ROCHESTER      CLOUDY    36  31  82 NE16G23   30.13F
RED WING       CLOUDY    37  25  60 NE9G17    30.18R
STANTON        CLOUDY    38  31  76 NE13      30.15S
DODGE CENTER   PTCLDY    36  30  80 NE13G20   30.14R
WINONA         CLOUDY    37  30  75 E7G20     30.20R
AUSTIN         CLOUDY    37  30  75 NE7       30.13R
PRESTON        CLOUDY    37  29  72 E9        30.16R
$$
ABBREVIATIONS USED IN REMARKS
   TC - TEMPERATURES IN CELSIUS
  WCI - WIND CHILL INDEX
   HX - HEAT INDEX
  VSB - VISIBILITY
$$




USA.gov is the U.S. government's official web portal to all federal, state and local government web resources and services.